This demonstration page uses our WeatherBlox Daily Observations layout. Learn more.

Left ArrowRight Arrow

Hourly Observations for January 27, 2022

Temp ( °F °C ) Dew Point ( °F °C ) Humidity (%) Winds ( mph kmh ) Pressure ( in mb ) Visibility ( mi km ) Precip ( " mm )
12:53 am 00:53 Clear 35 1.7 23 -5 61 61 NNE 3 6 30.26 1025 7 11 0.00 0.00
1:53 am 01:53 Clear 34 1.1 24 -4.4 67 67 NNE 3 6 30.26 1025 9 14 0.00 0.00
2:53 am 02:53 Clear 34 1.1 22 -5.6 61 61 NE 3 6 30.26 1025 10 16 0.00 0.00
3:53 am 03:53 Clear 30 -1.1 24 -4.4 79 79 Calm 30.26 1025 10 16 0.00 0.00
4:53 am 04:53 Clear 32 0 24 -4.4 73 73 Calm 30.28 1025 10 16 0.00 0.00
5:53 am 05:53 Clear 30 -1.1 23 -5 75 75 ENE 3 6 30.30 1026 10 16 0.00 0.00
6:53 am 06:53 Sunny 33 0.6 21 -6.1 61 61 NE 5 7 30.30 1026 10 16 0.00 0.00
7:53 am 07:53 Sunny 38 3.3 26 -3.3 62 62 ENE 5 7 30.31 1026 10 16 0.00 0.00
8:53 am 08:53 Sunny 44 6.7 29 -1.7 55 55 ENE 8 13 30.32 1027 10 16 0.00 0.00
9:53 am 09:53 Sunny 51 10.6 31 -0.6 46 46 VRB 7 11 30.31 1026 10 16 0.00 0.00
10:53 am 10:53 Sunny 55 12.8 32 0 42 42 VRB 7 11 30.30 1026 10 16 0.00 0.00
11:53 am 11:53 Sunny 59 15 33 0.6 38 38 NNE 7 11 30.26 1025 10 16 0.00 0.00
12:53 pm 12:53 Sunny 62 16.7 33 0.6 34 34 N 9 15 30.23 1024 10 16 0.00 0.00
1:53 pm 13:53 Sunny 63 17.2 32 0 31 31 ENE 8 13 30.19 1022 10 16 0.00 0.00
2:53 pm 14:53 Sunny 63 17.2 31 -0.6 30 30 VRB 5 7 30.18 1022 10 16 0.00 0.00
3:53 pm 15:53 Sunny 62 16.7 29 -1.7 29 29 VRB 3 6 30.19 1022 10 16 0.00 0.00
4:53 pm 16:53 Sunny 59 15 29 -1.7 32 32 ENE 5 7 30.19 1022 10 16 0.00 0.00
5:53 pm 17:53 Clear 55 12.8 30 -1.1 38 38 E 3 6 30.19 1022 10 16 0.00 0.00
6:53 pm 18:53 Clear 49 9.4 32 0 52 52 Calm 30.19 1022 10 16 0.00 0.00
7:53 pm 19:53 Clear 46 7.8 33 0.6 61 61 Calm 30.19 1022 10 16 0.00 0.00
8:53 pm 20:53 Clear 44 6.7 32 0 63 63 Calm 30.20 1023 10 16 0.00 0.00
9:53 pm 21:53 Clear 42 5.6 33 0.6 71 71 Calm 30.20 1023 10 16 0.00 0.00
10:53 pm 22:53 Clear 41 5 33 0.6 73 73 Calm 30.19 1023 10 16 0.00 0.00
11:53 pm 23:53 Clear 41 5 33 0.6 73 73 Calm 30.17 1022 10 16 0.00 0.00

Powered by AerisWeather